Wind_Gust
12 20 19 19 19 19 18 22 21 24 22 22 22 23 27 32 35 33 36 34 33 41 36 35 37 41 37 38 35 32 32 35 31 38 41 35 34 37 36 27 27 34 36 30 31 31 27 29 32 28 22 22 20 19 22 26 30 33 34 28 27 27 26 25 24 24 25 25 20 16 21 22 19 20 17 17 15 15 17 17 17 18 18 17 16 15
17 17 21 22 22 20 22 21 21 23 21 23 25 25 29 29 31 30 38 35 36 35 32 32 35 37 40 36 31 31 38 41 39 33 38 39 36 31 31 32 28 28 27 30 28 28 28 28 29 34 29 23 24 24 26 25 29 28 33 34 30 27 27 28 28 25 24 24 26 23 23 22 21 20 21 19 17 17 16 17 17 18 18 19 18 15
23 23 22 23 22 20 17 17 17 20 22 24 27 25 27 29 28 32 36 34 33 33 37 36 41 37 33 29 29 34 32 35 37 35 32 34 38 33 29 35 31 28 27 29 30 27 29 30 30 31 36 38 35 31 29 28 27 29 30 30 31 31 30 29 27 25 25 21 19 21 21 22 22 16 15 16 15 15 16 17 17 19 18 20 19 17
24 21 22 20 17 18 22 22 19 21 24 25 23 23 26 25 27 29 25 32 30 37 31 28 30 29 26 22 26 25 30 34 25 34 36 30 33 34 35 29 34 32 26 33 30 30 26 28 28 27 32 38 38 33 29 30 29 25 27 29 30 32 31 29 28 28 22 17 13 13 17 16 19 20 18 14 13 15 16 18 18 19 19 20 19 18
25 24 26 26 21 23 24 19 20 23 24 21 24 25 27 23 28 30 29 31 32 30 30 31 35 33 28 31 30 25 31 32 35 36 35 35 32 32 27 27 26 35 30 36 32 31 30 30 29 30 30 30 32 38 35 31 30 28 27 28 31 30 31 29 28 26 21 19 16 15 15 15 16 12 16 15 16 19 19 18 17 21 20 21 20 19
22 18 21 21 18 19 22 22 21 21 23 22 21 25 25 26 27 27 27 30 34 35 30 26 38 39 29 32 32 28 31 35 32 28 31 35 35 35 33 28 22 28 31 29 35 35 32 31 30 29 32 32 31 33 39 39 35 30 29 28 26 26 27 27 25 26 24 24 23 23 25 24 23 22 23 27 29 22 24 25 18 19 22 21 19 19
21 23 23 21 20 21 22 23 20 20 25 24 25 21 24 25 26 26 26 29 31 35 28 30 36 39 29 37 34 33 34 35 31 35 33 34 39 37 35 31 24 18 22 28 27 33 31 30 32 32 34 34 33 33 34 34 39 36 32 28 29 27 27 27 25 26 25 23 24 25 26 26 28 28 27 20 19 20 16 16 18 19 19 21 21 19
19 19 16 15 19 22 21 22 20 20 24 30 18 21 24 28 29 28 29 27 33 29 35 33 36 36 35 29 25 31 35 33 35 36 39 36 36 37 31 30 26 22 20 25 25 31 31 31 31 34 34 36 39 35 32 32 32 32 30 27 28 27 27 26 26 28 26 27 26 24 22 22 23 24 23 21 20 18 16 18 18 16 18 20 19 20
21 26 22 22 21 24 24 22 20 18 27 27 20 23 25 26 29 29 29 28 26 27 33 34 31 42 33 27 25 30 35 32 35 36 34 36 29 35 38 32 26 23 18 16 23 29 31 32 32 32 33 32 36 35 35 33 31 31 29 29 29 28 27 26 27 29 26 24 26 27 24 22 20 19 18 16 16 18 17 18 16 17 18 19 19 20
24 21 24 26 25 23 21 20 19 21 28 20 22 23 26 25 26 27 30 28 26 29 30 30 33 41 33 27 29 27 32 32 35 36 36 33 31 29 23 38 36 27 21 21 19 33 34 32 32 34 35 34 32 31 30 33 33 32 30 27 28 27 26 27 28 30 30 27 24 23 22 23 20 18 18 17 19 18 16 19 18 17 20 20 19 19
26 22 25 29 26 25 22 23 23 22 23 23 23 28 28 27 28 25 27 31 29 31 31 28 32 36 41 28 33 33 30 31 28 31 35 35 32 29 27 22 24 35 33 29 21 21 32 36 33 31 36 36 37 33 32 30 28 29 29 28 29 29 26 26 29 29 28 27 24 26 24 24 22 20 22 21 20 19 16 21 21 20 20 20 21 19
21 19 20 17 21 25 21 28 22 21 21 21 26 26 24 26 22 25 26 25 33 34 27 29 32 33 44 31 32 29 30 32 30 29 33 36 38 36 27 32 27 25 22 31 29 20 26 27 29 32 33 35 33 30 31 30 30 29 26 26 27 24 26 27 28 29 30 27 26 24 23 24 25 20 24 25 25 24 23 22 22 19 17 19 19 19
23 16 18 18 15 23 26 23 20 19 20 21 22 23 25 27 21 24 23 26 30 36 25 29 30 38 41 33 30 30 31 35 34 30 24 30 40 34 34 30 26 25 23 20 21 23 22 26 29 26 31 32 31 30 28 29 28 27 27 29 27 25 24 27 28 29 29 29 28 27 26 24 25 23 22 24 22 20 23 22 20 21 23 19 21 24
19 19 19 17 16 18 16 20 19 22 16 17 20 22 23 27 22 23 23 25 26 28 28 32 29 42 29 31 33 38 35 34 33 32 30 32 24 35 36 31 33 34 33 25 19 19 22 30 31 29 30 31 30 29 29 25 25 24 25 26 30 30 27 26 29 30 30 30 30 30 30 25 26 25 22 24 25 22 21 21 24 24 25 26 26 26
24 22 14 16 14 16 20 19 22 24 24 26 19 18 16 23 26 19 23 24 24 23 24 23 26 26 29 27 26 29 35 37 35 34 30 30 31 27 29 37 37 34 35 38 28 28 27 24 31 34 31 31 33 30 30 27 25 25 25 26 27 26 26 27 28 29 32 32 32 30 31 30 29 25 22 24 23 21 20 20 22 22 21 23 23 24
19 24 22 16 19 24 23 21 25 23 27 28 25 21 20 24 19 22 23 21 20 24 25 23 24 19 31 30 34 32 30 32 36 35 30 29 31 30 29 29 28 29 31 31 30 31 32 27 19 23 29 34 35 31 34 32 29 27 27 26 28 29 28 28 27 27 30 30 29 27 30 32 32 30 27 23 20 21 20 20 21 22 21 20 19 17
22 17 21 31 26 20 15 19 20 18 19 14 22 19 15 20 18 14 20 26 21 21 33 25 29 29 26 32 33 31 32 33 33 32 31 30 27 26 28 25 22 20 26 22 23 27 28 32 26 21 22 24 26 30 31 32 34 36 32 29 27 26 25 26 28 30 30 30 29 30 31 31 30 31 30 31 27 27 26 25 23 22 21 18 19 19
18 30 26 25 21 17 24 23 24 23 25 29 30 21 20 17 17 21 25 15 16 20 30 22 26 25 22 30 20 25 29 29 28 32 35 27 25 25 22 17 17 17 16 15 17 18 21 27 33 23 28 34 29 27 29 32 31 33 35 33 31 28 28 28 29 28 27 30 29 29 29 30 31 33 33 33 29 25 23 23 24 23 22 24 22 20
21 31 17 16 22 19 19 22 24 23 22 31 31 20 20 16 13 11 14 15 16 18 22 22 25 28 24 25 21 24 25 27 28 24 28 31 32 27 21 21 18 20 22 18 17 18 22 20 26 21 20 26 30 32 32 34 33 30 30 32 34 34 33 33 37 36 36 34 33 33 32 32 34 35 33 33 30 25 24 25 24 25 26 21 20 22
14 18 27 14 18 26 28 20 24 18 13 20 24 28 21 25 19 16 18 20 19 17 12 20 24 27 21 25 20 22 22 22 24 21 20 22 21 20 19 28 26 23 21 18 17 19 21 19 15 21 24 29 28 30 32 30 30 30 31 30 30 32 32 30 30 32 34 38 36 35 34 33 33 31 34 34 32 31 29 28 27 25 22 25 23 22
15 8 24 24 22 23 25 12 19 19 23 21 18 21 19 18 16 20 19 22 20 21 18 20 23 25 20 21 24 22 21 20 19 22 18 17 23 23 27 20 24 25 23 27 22 19 20 18 15 12 16 21 27 31 29 28 31 35 33 30 32 31 28 29 30 30 30 31 34 34 36 37 37 38 35 33 32 30 29 28 27 27 26 22 23 23
10 13 20 33 31 22 22 20 20 25 23 22 23 25 22 20 17 16 21 15 25 22 18 14 27 29 23 23 22 23 19 18 21 19 21 15 18 22 28 25 20 18 22 27 27 24 26 23 17 13 15 19 21 26 26 34 32 28 27 32 34 29 28 30 31 31 31 30 30 31 32 34 33 36 34 31 30 29 30 29 29 27 24 24 26 24
12 16 23 29 27 29 28 31 24 24 24 24 24 27 22 20 20 23 23 15 19 23 20 23 26 33 24 20 25 25 24 23 23 22 20 20 19 22 25 20 21 20 18 20 21 23 18 21 20 20 18 22 24 26 27 23 25 27 28 28 26 28 27 26 28 29 30 32 32 31 30 30 30 31 31 31 30 29 29 28 27 26 26 27 26 24
6 16 22 29 27 29 29 20 16 19 22 20 21 25 24 23 21 25 24 19 22 17 17 15 25 36 15 18 18 19 19 21 20 20 24 23 20 22 25 22 23 20 19 25 25 22 17 14 17 15 16 18 22 26 29 26 24 24 25 24 23 27 28 25 26 28 28 28 29 31 31 31 29 28 29 30 30 29 28 28 27 26 27 27 25 26
18 7 10 27 33 26 15 13 15 12 20 17 21 20 25 28 25 25 27 20 25 20 22 22 29 23 15 21 23 22 23 22 24 26 24 25 25 22 21 23 24 23 24 25 24 23 20 19 21 21 18 15 19 20 26 31 30 29 27 26 26 26 25 25 25 25 27 27 27 28 30 30 30 30 30 28 28 29 28 26 26 25 27 26 26 26
10 12 12 21 26 30 36 34 32 30 25 27 20 25 26 24 26 24 20 18 22 19 24 26 27 21 23 23 24 25 24 28 27 25 26 23 20 23 21 21 19 18 20 24 24 22 22 18 14 14 14 21 21 23 21 25 27 29 33 33 28 26 25 26 26 27 26 27 28 28 28 29 29 30 31 30 29 29 29 27 24 25 26 27 28 26
11 11 11 17 18 21 25 25 26 20 21 23 26 26 28 23 26 25 27 25 23 18 21 21 25 26 26 25 25 26 28 29 30 28 28 27 25 26 23 21 16 15 16 18 19 17 14 16 17 15 13 11 8 10 17 22 30 32 32 36 36 35 33 30 27 27 29 28 27 26 27 28 28 29 28 29 30 28 28 27 24 24 26 27 27 27
10 14 12 12 18 24 25 26 28 26 23 26 27 28 24 23 21 25 21 27 20 23 27 21 21 26 25 24 27 31 31 29 30 29 28 27 27 26 23 21 18 20 19 20 19 17 16 17 17 17 14 14 16 15 13 13 18 23 24 32 35 33 33 32 32 33 32 30 28 28 28 28 26 28 29 29 27 26 26 25 24 24 24 23 25 26
9 13 13 13 20 17 22 26 28 27 22 25 26 25 26 24 22 23 24 25 23 25 30 21 21 25 24 24 29 31 30 30 29 31 28 25 26 27 23 23 23 24 22 21 20 18 17 18 20 17 18 18 16 15 15 18 18 24 20 26 27 30 33 29 27 27 27 26 26 27 26 26 26 26 27 28 27 25 25 25 25 24 24 23 25 26
9 15 15 17 26 28 23 20 17 18 20 20 20 23 20 23 23 21 24 25 25 26 29 30 26 28 27 29 33 33 31 30 30 26 26 27 26 25 26 23 26 27 23 19 18 21 20 20 19 20 16 15 18 17 20 19 20 23 15 26 29 29 31 30 28 27 26 27 27 26 25 26 25 25 26 27 28 27 26 26 26 25 24 25 26 25
7 20 11 22 21 26 19 9 13 15 18 23 22 24 24 23 21 18 21 19 24 26 24 26 29 31 24 24 34 31 32 31 31 28 26 25 25 25 27 28 26 24 24 22 20 21 21 18 18 20 21 17 16 19 20 20 21 23 22 15 24 28 36 30 28 28 29 29 26 25 25 25 26 25 26 27 28 26 26 27 27 26 26 26 25 26
11 20 15 21 20 24 18 18 18 18 15 12 22 27 28 26 24 25 25 23 22 25 26 26 28 34 35 33 34 31 30 31 32 33 31 26 26 27 26 28 28 28 27 25 23 21 20 20 20 21 21 22 20 20 21 21 20 19 26 18 19 25 24 26 28 31 33 30 27 25 26 26 25 26 27 27 28 28 27 26 26 27 27 27 26 26
18 18 19 17 20 19 21 21 23 22 16 12 22 25 24 22 23 28 26 21 20 21 24 25 27 29 34 33 32 31 31 32 31 31 30 30 27 28 32 31 30 29 26 23 24 23 21 22 21 19 13 17 19 21 19 18 19 21 19 23 18 19 23 24 26 28 27 25 25 26 27 26 26 27 28 28 28 28 27 28 27 28 27 28 28 25
19 19 20 14 17 22 23 24 19 15 24 25 18 13 19 25 26 24 26 25 25 22 24 28 32 32 31 31 30 33 33 35 33 30 27 27 29 27 28 28 27 25 23 23 23 23 22 21 21 18 15 15 19 21 17 16 17 16 18 17 23 21 24 27 27 27 27 26 26 24 25 26 27 28 29 29 28 27 28 28 30 29 29 28 26 26
22 24 17 15 16 23 21 19 18 20 15 9 13 9 14 21 21 19 23 22 19 23 29 34 34 34 34 32 34 34 33 33 31 30 29 32 34 32 29 28 26 24 24 23 22 21 18 16 15 15 16 15 15 16 18 19 15 17 19 21 22 19 23 26 28 28 28 27 25 24 23 24 26 27 27 28 28 28 29 30 29 29 29 28 28 29
12 14 18 15 19 18 17 25 28 22 8 6 15 10 17 12 9 18 12 12 21 20 25 30 31 32 32 34 32 31 31 32 33 30 30 37 40 38 35 28 27 26 25 22 20 21 20 18 15 15 15 14 15 15 18 17 15 18 22 24 25 23 18 24 28 29 29 30 29 25 24 28 28 29 28 26 27 27 28 28 30 30 29 27 27 27
17 19 12 21 14 22 19 19 20 8 7 13 25 31 38 30 29 23 19 10 15 24 28 29 31 31 35 34 33 34 34 30 28 28 34 39 40 36 36 33 23 21 21 18 19 17 17 19 18 16 16 16 15 17 17 16 17 18 20 22 26 25 23 18 27 29 29 29 31 29 26 29 27 26 28 28 27 28 28 27 28 27 27 26 27 27
16 20 11 17 13 14 20 22 20 19 31 31 21 26 25 22 15 17 9 10 11 28 29 32 32 33 33 34 36 37 31 34 47 42 39 41 39 36 36 32 31 30 26 22 24 22 18 16 16 17 18 17 18 17 16 16 16 19 21 24 25 27 27 27 22 29 29 30 29 29 28 27 27 28 28 29 30 29 29 29 29 28 27 29 29 29
17 16 14 13 16 14 20 22 23 22 19 9 27 29 29 29 24 15 6 7 19 28 30 34 34 34 33 33 36 34 37 40 32 34 37 39 37 36 34 33 31 31 30 29 25 27 23 19 19 20 17 15 18 18 16 18 20 22 24 24 26 28 30 29 27 22 33 32 30 29 28 28 28 29 29 30 32 32 30 30 31 30 27 28 27 28
20 17 16 17 16 17 16 19 18 14 22 21 28 31 33 29 23 16 15 29 32 33 30 30 32 33 36 35 32 31 34 34 37 39 36 36 33 33 35 35 33 31 32 33 31 23 23 22 21 19 20 21 22 22 22 22 24 23 24 27 27 29 31 31 30 27 24 31 31 30 31 28 28 28 29 31 30 30 31 31 30 29 30 29 28 27
21 17 15 19 19 18 16 17 8 9 10 20 23 29 27 30 19 21 33 28 32 33 30 21 29 34 36 36 32 33 30 33 32 33 34 35 33 36 37 37 34 33 36 36 35 27 19 21 22 24 23 23 22 22 21 20 21 23 24 24 27 30 30 27 28 28 24 26 28 30 32 31 31 33 31 31 30 30 30 30 30 29 30 31 30 26
18 17 13 14 20 20 19 20 17 8 9 20 23 22 22 23 29 27 23 21 26 30 29 19 28 34 35 33 34 31 33 34 34 34 33 33 32 31 36 40 41 40 35 32 28 27 24 19 20 24 25 24 26 24 23 22 23 23 22 21 24 27 27 25 25 28 24 26 29 28 30 30 30 33 33 30 30 28 27 27 28 28 30 29 30 29
17 17 17 17 20 14 17 20 18 20 15 21 25 14 17 27 20 17 21 22 22 26 26 20 25 30 32 34 34 31 32 35 35 34 33 33 34 35 36 37 36 35 32 31 31 30 26 22 23 25 26 25 23 24 24 23 25 25 24 27 27 25 24 25 25 27 30 26 29 28 29 29 31 30 29 29 30 30 30 28 26 27 27 29 29 29
16 13 13 12 16 15 16 22 15 13 18 13 16 21 24 20 15 16 21 23 26 25 26 23 20 25 28 30 33 32 31 34 34 34 34 34 36 37 37 38 38 38 33 31 28 27 25 24 23 25 23 25 25 26 26 27 28 28 28 30 29 24 23 23 23 29 30 28 24 26 27 31 31 31 28 29 28 28 29 28 28 28 28 27 26 26
14 15 15 13 14 11 9 11 13 14 18 15 11 12 17 18 15 15 18 22 25 27 20 19 20 21 25 28 29 30 33 33 32 33 35 34 35 36 37 36 34 34 32 27 26 26 23 23 22 25 25 22 22 21 22 22 26 27 30 32 27 27 26 25 23 22 24 31 27 27 24 22 29 30 27 28 28 26 25 22 23 26 25 26 26 26
13 14 13 13 16 14 11 9 15 20 22 19 20 18 15 18 18 18 19 20 20 22 19 21 18 19 22 26 30 30 31 31 34 35 33 33 34 35 34 36 38 35 32 31 31 30 25 23 19 24 27 33 32 30 28 27 26 29 34 31 28 28 26 25 25 24 22 21 23 24 28 26 27 27 29 24 26 25 25 26 27 28 27 27 27 26
13 20 19 16 17 14 10 14 23 24 20 18 22 23 20 17 23 24 26 24 21 20 18 14 16 19 18 21 26 27 30 32 33 33 31 31 35 34 33 32 32 30 31 31 29 29 30 29 32 34 35 38 40 40 41 41 46 49 49 46 41 36 31 24 27 24 21 21 18 21 25 24 20 19 25 27 28 28 29 30 29 26 25 23 23 22
14 19 17 17 18 12 11 19 23 23 14 16 25 27 26 26 26 26 27 25 23 21 17 14 15 19 15 18 22 26 28 30 31 34 33 31 32 32 32 31 31 33 34 31 30 29 29 32 30 31 35 34 34 35 38 43 46 52 56 56 55 51 40 25 27 24 17 14 16 15 17 20 23 22 17 16 21 22 19 20 20 23 25 27 25 24
18 15 11 19 20 16 12 19 26 23 10 19 23 23 24 22 26 28 27 26 17 20 21 17 13 15 15 16 18 19 24 27 28 26 28 30 30 30 31 30 29 30 29 32 32 31 29 27 31 31 32 37 38 37 39 39 41 44 50 52 54 52 26 21 18 17 16 16 15 14 14 17 18 20 20 16 19 18 20 20 22 24 24 23 27 29
15 14 18 17 13 13 18 25 24 27 27 26 21 23 23 21 24 26 26 28 20 20 22 21 19 18 19 17 20 19 20 20 25 25 24 24 27 27 27 31 31 30 27 26 27 30 32 31 30 31 32 33 33 34 37 39 42 43 43 41 39 40 24 22 23 20 17 16 15 13 13 15 15 13 15 14 15 16 14 17 19 21 21 22 21 24
12 11 13 13 14 18 19 19 17 19 20 21 22 22 21 22 24 25 26 28 26 20 20 20 22 20 20 20 20 21 20 20 20 20 22 23 25 27 30 30 29 30 31 31 32 33 31 31 31 32 33 33 32 32 33 34 37 39 38 39 35 30 28 25 25 24 22 19 17 16 14 14 14 12 13 17 15 13 14 16 23 28 32 27 19 21
Wind_Speed
2 2 5 6 9 9 8 8 10 10 10 8 4 1 4 5 7 5 8 7 8 6 7 9 9 7 6 7 7 10 9 8 11 16 19 15 6 7 8 11 13 15 17 16 8 7 8 6 8 8 9 12 11 7 2 9 10 10 12 13 14 13 13 12 12 12 12 12 9 8 11 11 9 9 8 7 6 8 9 10 10 10 10 8 8 8
3 2 7 10 13 9 10 7 6 9 8 7 2 3 6 4 9 5 8 8 10 3 6 10 10 6 5 6 7 9 6 9 10 12 16 20 15 6 10 11 13 14 8 6 4 3 4 3 5 6 6 9 13 7 6 2 10 11 9 12 13 12 13 14 14 13 12 12 12 10 9 8 9 8 8 7 6 8 8 10 10 10 10 10 9 8
2 6 10 13 6 5 10 11 11 7 7 6 7 5 5 7 6 8 6 7 5 3 8 7 8 11 6 6 8 8 7 8 9 10 12 15 17 6 9 10 11 10 9 7 8 6 9 6 4 6 8 9 12 15 16 12 6 9 11 12 11 11 13 13 14 12 13 11 10 11 8 10 7 6 8 8 8 8 9 10 10 10 10 10 9 9
5 5 13 13 5 5 4 3 1 2 2 2 6 3 6 5 4 8 4 6 4 2 5 5 9 9 7 5 9 9 6 6 7 9 10 10 14 12 9 10 10 10 12 11 12 15 12 12 10 9 12 15 15 13 13 16 17 14 10 8 10 13 14 12 13 14 12 10 9 8 10 10 11 8 6 7 8 9 10 11 10 10 10 10 9 9
5 10 5 4 4 2 4 4 4 3 6 3 3 4 4 4 5 6 7 5 6 3 4 6 6 7 4 6 5 6 4 5 7 7 9 11 11 12 3 7 8 12 13 13 14 15 15 14 15 13 13 13 14 18 15 15 16 13 16 15 15 14 15 13 13 12 9 9 9 8 9 8 7 6 8 8 8 10 10 9 9 10 10 11 10 9
7 3 6 11 6 5 5 7 5 1 4 4 4 5 7 7 8 8 10 10 6 7 2 5 6 7 4 5 7 8 4 7 7 7 9 12 13 11 1 6 7 7 6 13 17 17 17 18 18 19 16 14 13 13 20 18 18 18 16 16 15 12 11 12 12 11 10 12 12 12 11 11 11 11 11 13 13 10 9 9 7 9 10 10 9 9
3 8 8 6 5 5 5 4 6 4 5 3 6 4 5 4 5 7 9 5 5 7 3 2 5 10 4 6 4 5 5 8 8 6 9 10 11 9 5 4 6 7 7 6 8 13 15 13 17 18 17 18 17 16 14 20 25 24 20 18 17 14 13 11 11 13 11 11 11 15 15 14 14 13 10 10 9 10 8 7 9 9 8 10 10 9
4 10 9 8 5 5 5 6 4 4 5 4 5 3 4 4 5 6 6 3 5 4 8 3 4 7 10 10 4 4 5 7 8 10 11 11 9 8 6 5 5 7 7 8 9 10 11 9 11 13 15 17 18 18 15 13 14 19 19 18 17 14 15 14 12 13 13 13 13 13 13 12 12 13 12 11 9 7 8 9 9 8 9 9 10 10
4 7 6 7 5 5 6 4 6 3 2 5 3 5 3 2 2 5 6 7 5 5 13 6 1 3 4 8 5 2 7 8 8 10 9 10 10 9 9 7 7 8 8 8 7 9 11 12 15 19 21 20 21 18 17 17 17 18 18 18 17 17 16 15 17 17 15 13 14 14 13 12 10 10 8 7 8 9 9 9 7 9 9 9 10 11
2 3 7 8 5 7 5 5 4 4 6 3 3 3 2 3 3 4 4 5 6 5 13 8 3 3 9 7 8 1 2 6 6 8 10 11 10 10 9 8 6 7 5 5 8 10 11 13 16 17 17 16 13 13 17 19 18 18 17 17 17 18 15 14 17 18 19 18 14 12 12 13 10 9 7 8 9 8 8 10 9 9 9 9 10 11
9 10 9 3 4 4 1 2 2 4 6 3 6 6 6 6 5 3 1 1 2 7 13 4 4 2 7 10 9 8 5 4 6 7 9 10 11 12 11 9 9 9 7 5 7 10 12 13 16 19 21 21 23 19 18 16 16 17 17 18 19 19 15 15 17 18 19 17 15 14 15 14 13 11 10 10 9 8 8 10 9 9 9 9 10 10
12 6 3 2 5 3 4 4 3 3 4 8 3 4 7 6 6 5 3 1 3 8 2 3 6 3 4 8 8 6 5 3 4 8 13 13 12 13 13 13 12 10 9 9 7 7 10 11 12 17 21 22 22 19 18 17 16 15 15 16 18 15 14 14 15 16 17 15 15 15 14 14 12 12 11 13 12 12 11 9 9 8 8 10 10 10
10 6 7 7 1 14 6 6 7 7 5 7 4 6 6 4 4 4 3 3 3 7 1 4 9 6 6 8 11 10 12 8 8 8 8 9 13 14 13 15 14 11 10 9 9 8 9 10 12 15 20 21 20 18 18 17 16 15 15 17 18 16 15 14 14 16 17 16 15 15 15 13 12 13 13 12 12 11 11 9 9 10 10 9 10 12
7 7 4 8 5 6 9 5 6 7 4 6 4 0 1 2 1 3 4 1 5 6 3 3 5 5 7 12 13 14 11 6 5 9 10 9 11 11 13 15 15 15 13 11 10 10 10 10 10 15 18 19 18 19 17 15 12 12 13 16 18 19 17 15 15 16 16 17 16 15 14 14 12 13 13 12 12 11 10 10 11 11 11 11 12 12
5 9 6 5 4 6 8 2 2 3 4 6 4 5 5 2 1 3 1 2 5 7 5 1 2 4 2 7 3 6 10 13 12 12 12 9 10 9 7 11 15 13 12 11 10 11 11 11 11 13 17 18 17 18 18 16 13 10 10 13 17 17 17 17 17 15 16 15 15 14 13 12 12 12 12 11 10 10 11 10 11 10 10 11 11 11
3 7 11 3 6 9 7 2 3 5 7 2 3 5 4 5 4 5 0 2 4 6 6 2 4 3 6 7 10 13 16 16 16 14 11 11 10 5 6 8 12 13 13 13 13 13 11 10 12 12 15 17 18 18 14 14 13 9 8 11 15 17 17 17 17 17 17 16 15 15 14 14 13 12 11 10 10 11 11 10 11 11 11 10 9 9
3 5 3 10 13 8 8 3 6 3 2 2 2 1 4 1 6 2 2 6 2 2 7 3 6 7 6 8 11 12 8 11 11 13 10 10 7 4 4 6 8 8 11 12 11 11 11 9 7 10 11 7 7 13 17 19 18 21 20 14 14 14 13 15 17 18 17 16 15 14 14 13 13 14 14 14 15 15 15 14 13 12 12 11 10 9
2 12 11 5 11 5 2 10 12 9 4 2 1 4 1 4 3 3 2 1 0 3 6 2 5 9 4 9 5 8 9 11 11 8 7 7 4 4 4 5 6 7 7 8 10 11 11 8 6 9 5 5 9 12 9 10 14 19 21 21 19 16 17 16 16 16 15 15 15 14 15 15 15 16 16 15 15 14 13 13 13 13 12 13 12 10
2 9 4 3 7 6 10 7 8 4 11 6 2 5 3 2 3 1 1 2 1 3 4 4 4 7 5 9 6 11 9 11 13 7 8 7 4 5 5 4 5 6 6 8 9 8 13 12 5 3 9 12 6 3 7 7 2 8 7 16 19 21 20 19 16 16 14 15 13 14 16 17 16 14 14 14 13 13 14 15 14 14 15 12 12 12
1 1 5 1 4 9 9 2 2 5 5 4 6 3 5 5 4 3 4 2 2 4 3 7 3 8 5 4 5 11 10 11 12 9 8 7 4 5 6 5 4 6 6 6 6 8 7 12 9 3 8 7 12 16 11 13 16 17 12 9 9 15 16 17 17 16 15 14 14 14 14 14 14 14 14 13 13 13 14 15 15 15 13 14 13 12
0 2 7 7 7 5 6 1 4 5 8 5 5 2 0 1 3 3 1 2 3 2 2 3 8 6 7 5 6 9 10 10 10 9 7 5 4 5 5 4 4 5 6 5 5 5 6 7 10 9 5 10 14 14 14 15 16 18 18 16 13 14 15 16 17 16 15 14 14 14 15 16 15 16 14 13 13 13 14 13 14 14 15 13 13 13
2 1 5 10 10 7 7 6 8 5 1 2 1 2 1 3 1 2 6 2 3 3 3 0 8 8 10 3 6 7 8 7 8 5 5 6 5 6 5 3 3 4 4 5 5 5 5 4 7 9 5 5 8 9 10 9 12 16 16 18 20 19 16 17 16 14 14 13 14 16 16 17 15 15 14 14 13 12 11 13 14 12 11 13 14 14
1 2 0 7 6 10 12 14 5 3 4 6 4 3 3 2 1 0 1 5 3 2 1 2 2 10 6 4 3 6 10 11 11 10 9 7 5 5 6 4 3 1 2 5 8 8 6 5 4 5 4 3 5 12 13 11 12 12 13 13 12 14 17 15 15 15 14 14 14 16 15 15 14 14 15 15 13 13 13 12 11 11 13 13 13 13
1 1 2 8 8 9 4 3 2 2 2 1 1 1 3 3 4 5 4 2 1 3 3 2 2 9 4 8 11 11 11 10 11 13 15 14 11 10 8 7 5 4 2 2 5 7 6 3 4 6 5 3 2 6 6 11 12 12 11 11 9 10 14 12 12 12 12 12 13 15 14 14 14 15 15 15 13 14 13 11 10 11 13 14 12 13
1 1 1 7 6 3 1 3 0 3 5 2 5 7 6 7 6 7 6 1 2 4 7 2 8 7 5 12 13 14 14 13 15 17 15 16 14 13 10 9 7 5 3 3 4 7 7 7 6 5 4 4 1 2 2 7 8 11 12 12 14 14 11 9 8 9 12 12 14 13 13 14 13 14 14 15 13 15 14 13 10 10 13 13 13 13
1 2 1 6 10 13 13 10 10 9 9 7 4 10 9 12 10 4 2 2 3 2 3 2 6 7 12 13 15 14 16 18 17 16 16 14 13 14 13 12 11 8 7 5 4 6 8 7 5 7 6 4 3 1 4 4 3 5 9 10 8 10 9 5 5 8 10 11 12 12 13 13 13 14 15 15 14 15 14 13 11 11 11 13 14 13
1 0 2 3 2 7 8 8 8 4 5 4 10 11 12 10 6 2 3 3 2 3 5 4 6 14 14 16 16 18 18 19 19 17 16 17 17 16 14 13 10 9 7 8 4 4 7 8 9 7 6 5 4 4 1 5 5 3 4 7 10 10 11 11 8 8 9 10 12 12 13 13 14 14 14 14 15 14 13 13 12 12 12 11 13 13
2 2 5 6 8 10 10 12 9 7 6 5 9 12 11 11 10 7 5 4 6 4 4 2 10 11 12 15 17 20 20 19 19 18 17 16 16 16 14 13 14 13 12 10 9 7 6 8 8 9 8 6 5 4 5 2 5 7 7 3 4 6 10 12 15 19 17 16 15 14 15 14 14 14 14 13 14 14 14 14 13 13 12 11 13 14
0 1 3 2 8 7 6 10 9 5 3 4 7 11 11 12 10 7 6 4 4 1 4 10 11 12 11 13 18 19 18 18 19 20 18 16 15 14 14 15 16 14 13 11 11 9 6 6 7 9 8 6 4 4 3 3 4 4 4 8 10 7 7 7 9 14 16 16 15 16 15 14 13 13 14 14 14 14 14 14 13 12 12 12 13 12
2 3 4 2 9 12 11 6 3 2 2 2 7 9 10 12 10 8 6 5 5 2 5 7 11 10 7 14 19 20 18 17 17 15 15 17 17 15 14 14 14 15 14 12 11 10 8 5 6 7 6 6 5 2 1 1 2 4 5 8 7 8 10 6 4 8 13 16 16 15 14 14 13 14 15 15 16 16 15 14 13 13 13 13 14 14
1 5 2 2 5 11 9 1 1 2 2 1 7 7 11 12 7 7 5 5 7 6 5 9 10 9 7 12 16 18 16 16 18 18 17 16 16 15 14 14 14 15 15 15 13 11 10 8 7 6 6 5 5 3 2 2 1 1 2 2 5 7 8 6 8 10 13 15 16 15 14 14 14 14 15 16 16 15 15 15 13 14 14 14 14 15
1 4 1 1 6 8 7 3 6 1 4 1 8 13 14 13 9 8 5 5 4 7 10 10 8 9 17 19 19 16 17 19 20 20 18 14 15 15 15 15 14 14 15 15 15 13 12 9 6 7 8 6 6 5 3 3 4 3 1 1 1 6 9 8 8 13 19 18 16 13 14 14 15 15 16 16 16 17 16 14 14 15 15 15 15 14
4 0 3 2 4 5 9 4 7 4 2 3 11 10 10 11 8 8 6 4 5 6 8 9 8 10 15 16 17 20 20 19 19 19 18 19 17 15 15 16 15 14 14 15 15 15 13 10 8 7 8 7 7 7 5 3 3 5 4 4 3 3 5 10 15 17 16 14 14 14 13 14 15 16 16 16 17 16 15 16 16 16 16 17 16 14
2 3 3 1 1 5 11 9 5 3 6 6 5 2 4 10 13 8 10 12 6 2 5 4 9 13 15 14 15 19 19 20 17 18 16 16 16 17 16 13 13 13 13 14 15 14 13 10 8 7 7 8 8 7 6 4 4 4 6 6 5 4 4 5 6 8 11 12 11 12 12 13 15 16 16 16 16 16 16 17 17 17 16 15 15 15
1 1 2 2 1 5 7 7 3 5 1 4 3 4 2 7 8 8 13 9 3 5 9 9 9 11 12 12 13 15 17 17 17 13 16 21 22 20 19 16 12 10 11 11 12 12 11 10 8 8 7 8 9 7 5 4 4 3 3 5 5 5 5 4 4 4 5 8 11 10 9 8 7 8 10 13 15 15 16 17 16 17 15 14 15 16
2 2 1 1 2 2 3 3 2 0 2 2 5 4 4 4 5 8 6 2 3 6 13 7 9 11 13 13 13 13 15 17 12 7 16 23 25 22 21 17 12 11 11 10 10 11 9 7 6 6 7 5 5 6 4 5 4 3 3 5 5 5 5 5 6 5 5 6 6 8 5 11 12 10 9 10 12 12 15 15 16 17 15 14 14 14
4 2 2 3 0 1 1 1 2 1 2 2 4 6 9 7 11 8 6 4 2 8 14 9 9 13 14 13 12 14 18 13 7 11 19 21 25 23 21 21 17 13 12 11 10 11 9 6 6 6 5 6 5 4 5 5 4 4 5 3 4 5 5 5 6 7 7 6 7 6 7 9 12 14 14 14 11 12 13 13 14 15 13 14 14 14
6 4 3 1 2 2 1 2 3 3 2 5 3 9 6 3 5 5 4 4 3 12 13 11 11 14 16 15 12 15 16 17 24 20 22 22 24 23 24 21 19 19 17 13 11 9 8 7 6 6 4 5 6 5 4 4 4 5 5 5 4 3 6 7 8 8 7 7 8 6 5 8 9 10 10 11 14 15 12 11 13 13 13 14 15 15
2 2 3 1 3 3 2 0 1 1 3 2 8 9 12 8 4 2 3 3 7 14 15 13 15 14 14 16 14 11 15 16 13 13 19 19 21 18 21 21 20 19 18 19 13 11 11 10 8 6 4 4 5 7 6 6 6 6 6 6 5 5 4 5 8 8 8 8 8 7 6 5 7 10 11 10 12 12 13 14 12 13 13 13 14 15
3 1 2 1 2 0 0 0 2 2 1 3 7 8 11 10 0 4 3 5 12 14 14 15 15 15 14 15 13 6 11 13 15 15 17 18 19 15 17 20 20 20 20 19 20 12 8 7 5 4 5 6 7 7 7 7 7 7 7 7 5 6 8 9 8 8 8 8 8 7 6 5 6 9 10 12 13 13 13 11 11 11 11 14 13 13
3 3 3 0 1 2 2 2 1 2 2 3 5 8 10 10 1 5 10 10 12 13 13 12 13 13 13 13 12 9 4 1 6 11 13 16 19 17 19 20 21 20 20 21 19 20 9 5 4 6 6 7 8 7 7 8 7 8 8 7 7 9 11 10 10 7 6 7 8 8 8 6 7 9 10 11 12 13 12 10 11 11 12 14 14 13
2 1 2 1 2 1 1 1 3 3 2 2 6 4 8 5 5 10 6 7 10 11 11 12 12 12 11 12 11 10 10 7 9 9 12 18 19 15 19 22 24 24 22 20 19 17 14 9 8 8 9 9 9 8 8 8 8 7 7 7 10 12 11 10 11 11 9 8 8 9 9 8 8 8 9 10 11 10 10 11 13 13 12 10 12 15
2 1 2 2 2 1 2 3 3 1 2 1 5 2 3 4 3 6 7 8 8 7 8 12 10 11 11 11 12 12 11 10 10 11 11 14 16 15 16 20 21 20 19 19 20 19 15 13 13 12 11 10 10 9 9 9 9 8 7 7 10 10 11 12 12 12 12 11 9 8 9 9 10 9 7 9 11 12 13 13 14 15 13 14 14 14
1 1 1 1 1 1 0 1 1 4 4 3 3 2 3 1 4 6 4 8 8 6 5 8 10 9 10 10 12 12 11 10 11 12 11 14 16 15 15 17 21 20 19 18 17 18 16 14 12 12 11 9 10 9 9 9 9 9 9 9 9 10 11 12 13 13 12 12 10 8 7 7 8 9 8 10 11 12 14 14 13 10 4 4 8 10
4 2 4 2 2 2 2 2 3 4 3 4 1 1 2 5 4 4 4 6 6 7 2 5 9 10 11 11 11 11 11 10 11 12 12 13 14 15 15 15 17 19 17 16 16 17 15 14 14 12 10 9 12 11 10 9 10 10 11 11 8 10 13 14 14 13 13 12 10 9 6 5 5 6 8 9 10 11 12 11 7 7 5 3 1 5
1 2 1 2 3 2 2 4 0 3 4 6 3 3 3 4 5 4 4 5 6 7 6 5 9 9 10 10 9 11 10 11 10 10 11 12 13 13 13 13 15 18 20 18 19 20 16 15 12 14 17 17 16 14 12 10 9 11 12 11 10 11 13 14 15 15 14 12 12 9 7 6 6 7 7 7 9 11 11 11 10 12 11 11 12 12
2 1 1 2 2 1 2 1 2 3 4 3 3 5 4 3 3 3 5 4 6 7 8 7 7 8 9 8 10 10 11 11 9 10 9 11 13 14 14 14 15 17 19 20 17 18 18 18 19 20 20 20 19 17 16 15 13 11 11 13 10 16 18 15 16 15 13 13 10 7 6 7 8 8 9 7 7 7 8 8 9 10 11 12 12 12
3 1 0 2 2 3 3 4 2 4 5 5 1 3 4 5 6 6 4 4 5 6 7 6 5 7 7 10 11 11 12 11 9 10 10 10 11 12 13 13 15 16 15 16 16 16 15 17 17 17 16 15 16 16 16 15 16 15 13 16 22 26 24 13 16 14 11 8 6 5 4 5 10 12 10 9 8 8 6 6 9 11 12 13 13 13
2 1 2 1 2 5 3 3 3 5 2 3 5 4 4 5 5 6 6 6 6 8 9 8 5 5 8 9 10 11 11 12 10 9 11 11 12 13 13 12 13 14 15 17 18 20 17 15 17 18 18 16 15 14 15 15 15 16 21 25 26 30 16 5 8 9 8 5 2 0 0 2 3 5 7 9 9 7 5 8 10 11 12 13 14 16
1 2 1 2 2 2 2 2 0 1 3 6 4 5 5 6 4 4 5 6 7 8 8 8 10 7 6 9 10 11 12 11 11 9 11 12 12 13 13 14 13 14 15 15 15 17 18 19 19 18 18 17 16 16 17 18 19 20 24 24 22 24 14 12 13 12 10 7 5 4 3 1 1 1 2 3 3 2 0 3 6 5 3 6 7 10
3 3 3 2 3 4 6 6 4 3 2 4 3 4 4 4 4 5 5 5 7 7 7 9 11 11 9 10 9 11 11 11 12 8 9 11 12 12 13 13 14 14 15 15 16 18 19 19 19 19 20 18 17 18 18 19 21 23 22 17 16 17 14 15 14 13 12 10 9 7 5 3 3 2 3 3 2 1 1 3 6 14 16 11 6 2
Wind_Direction
135 196 233 229 235 246 252 207 209 227 237 243 238 23 303 313 304 287 287 299 314 327 284 282 282 279 284 278 288 295 307 304 288 288 288 276 228 203 210 210 208 207 213 213 232 250 231 204 184 175 149 143 136 116 142 203 205 203 187 170 173 174 170 167 167 170 173 176 170 165 176 180 179 180 175 165 167 174 182 183 187 189 192 191 186 186
85 227 252 238 236 243 261 260 217 235 228 227 259 340 311 319 291 277 284 299 305 324 284 285 289 281 253 277 279 288 305 284 274 277 281 284 267 209 210 210 208 214 210 148 156 200 227 196 172 159 146 141 142 139 106 217 211 199 193 186 177 171 174 179 178 175 177 181 182 171 169 163 167 170 172 169 167 174 176 182 187 190 191 191 189 188
170 212 245 244 244 262 265 271 258 248 277 294 288 298 313 284 267 283 283 296 306 284 267 284 295 293 277 262 270 266 264 262 260 258 264 273 281 245 214 207 209 201 198 189 183 215 190 191 213 176 163 171 171 166 166 187 231 241 202 187 178 179 181 187 185 176 180 179 170 164 157 158 157 170 174 170 171 172 172 181 186 188 190 190 194 189
328 271 248 263 274 265 278 260 291 359 24 331 326 333 261 254 312 301 275 295 287 242 278 285 289 290 302 268 257 257 247 266 280 285 275 270 272 268 204 210 202 196 195 195 201 200 204 178 193 211 185 183 177 176 179 173 184 210 217 201 189 185 187 189 192 191 179 163 147 139 142 152 160 169 174 172 168 174 173 182 184 188 187 190 194 191
221 269 269 267 237 309 318 315 340 29 326 273 214 237 254 276 249 233 284 276 284 263 246 290 305 304 305 293 311 300 288 298 301 305 300 293 283 276 237 219 215 198 194 195 195 203 199 189 187 201 210 195 193 173 175 176 187 197 196 195 193 192 190 189 192 191 167 145 135 132 134 141 143 153 165 173 189 186 182 173 183 189 189 191 194 193
305 271 351 344 348 349 359 348 317 237 311 312 257 239 256 260 266 283 296 316 345 323 306 47 327 283 271 270 270 283 323 318 302 318 300 296 299 311 45 188 242 263 233 199 199 206 202 194 194 195 199 203 207 203 173 177 192 195 197 195 191 190 194 193 186 182 173 172 158 149 151 165 175 180 183 189 192 186 186 182 175 189 192 191 194 193
268 327 344 327 324 343 3 335 295 326 303 339 284 227 250 288 309 313 305 343 314 306 276 62 288 288 289 279 255 280 300 299 306 304 291 292 294 295 281 215 209 219 240 267 250 222 214 199 193 192 195 203 200 202 210 184 185 192 194 192 188 186 188 191 185 178 180 180 173 172 175 177 180 182 192 189 183 181 176 164 181 188 192 194 191 197
325 316 321 324 335 345 343 324 298 309 320 274 249 8 339 352 345 327 324 309 266 271 282 245 204 267 297 285 235 252 297 297 307 304 300 297 292 284 270 250 234 210 204 210 217 236 233 196 187 194 204 207 204 200 195 199 192 188 192 190 189 190 188 184 179 183 186 186 183 181 181 181 184 185 184 178 175 165 166 173 176 182 193 195 196 196
301 301 306 306 317 320 291 244 266 314 294 255 266 318 351 15 350 346 345 336 302 336 299 295 79 310 268 279 293 274 299 298 289 289 292 294 297 298 289 269 245 235 204 193 208 224 221 214 206 196 200 204 205 196 193 197 194 193 193 192 191 191 189 185 179 180 190 193 189 188 185 184 186 178 170 161 155 163 171 175 174 183 190 197 200 200
293 279 291 287 284 279 255 259 277 299 312 273 317 34 51 10 10 24 19 331 326 342 281 307 91 277 279 276 301 269 235 277 274 285 289 290 297 299 307 307 284 267 251 209 209 216 221 212 209 206 199 200 218 214 203 198 194 192 190 191 191 193 189 186 183 184 186 190 189 188 190 189 176 168 156 161 165 164 170 177 179 182 188 195 200 203
293 281 266 254 244 226 236 290 276 307 273 282 43 18 358 6 359 345 192 170 17 266 269 351 7 293 281 272 252 273 247 240 293 297 295 298 303 307 309 303 303 303 288 254 218 223 225 215 204 201 202 202 200 201 204 205 203 196 189 189 189 193 188 184 186 186 189 187 186 191 192 188 176 170 163 164 172 167 173 183 180 182 186 192 200 201
321 326 8 290 330 0 26 326 339 348 36 66 33 28 351 344 357 11 330 79 219 264 266 60 20 319 245 285 264 233 266 250 267 287 292 301 313 314 311 310 307 302 297 295 276 240 230 238 216 196 200 201 202 200 200 201 201 199 194 186 189 190 188 186 187 188 188 189 191 193 191 186 180 172 175 178 180 178 178 179 176 178 180 194 200 201
324 335 307 325 184 46 345 356 320 351 11 28 38 31 26 291 19 332 11 341 233 240 226 27 26 347 245 251 290 301 289 285 280 279 293 308 305 303 304 305 303 296 292 288 282 270 255 232 217 200 200 199 197 197 200 201 198 198 194 186 183 187 186 186 186 189 189 188 191 193 190 189 182 181 182 184 183 180 175 175 173 177 187 188 199 205
284 292 344 6 348 20 16 359 329 357 352 351 340 62 77 311 20 274 266 242 297 280 298 17 348 264 264 277 266 269 278 285 287 290 287 286 283 290 298 303 303 299 294 289 283 276 259 236 216 195 193 195 193 193 195 198 203 202 197 191 186 186 183 184 187 191 191 191 191 192 191 187 182 186 187 186 184 184 177 173 181 182 183 191 203 204
346 343 313 20 313 344 342 240 194 216 300 254 158 147 187 147 201 279 198 262 243 280 303 351 52 233 327 249 275 284 293 299 296 291 288 286 278 277 293 313 316 307 300 296 291 279 256 230 211 195 189 186 189 192 191 188 187 196 209 199 192 186 184 183 186 189 193 193 192 190 191 189 184 187 188 186 183 183 182 177 179 184 183 192 198 206
218 240 266 306 265 315 305 273 317 346 330 295 161 84 81 231 139 223 130 289 291 311 330 304 201 215 234 290 303 296 293 292 290 290 295 289 278 314 328 339 351 350 339 323 310 287 258 234 210 195 188 182 179 181 185 190 177 180 224 214 201 191 187 186 186 190 191 193 192 189 188 189 187 190 186 184 182 184 185 181 179 184 188 191 191 202
310 266 271 315 308 301 299 321 318 15 325 279 5 266 239 173 117 79 325 256 293 3 260 232 308 289 304 297 273 281 300 291 296 293 288 279 287 325 315 348 352 350 351 344 344 334 281 235 206 188 181 169 185 187 184 183 183 187 187 203 209 201 189 191 193 191 190 191 188 191 189 188 191 191 188 191 190 186 185 182 182 182 188 187 192 197
190 288 303 280 300 303 356 350 321 299 236 254 4 292 16 44 86 127 216 316 144 231 266 240 247 289 5 307 297 316 316 308 308 313 292 278 296 313 310 348 336 337 338 328 351 342 342 307 206 162 146 137 156 164 169 195 199 195 188 186 194 196 193 197 196 195 193 188 189 189 192 195 195 195 196 196 196 194 190 185 180 177 179 191 192 192
61 304 333 209 250 313 343 334 317 13 69 91 148 7 359 291 314 314 88 304 287 280 279 291 270 260 219 260 311 309 311 305 304 310 308 311 318 308 327 329 320 324 338 349 339 346 336 346 332 175 173 163 140 274 188 143 290 298 239 197 189 191 194 192 192 195 194 190 189 191 194 195 198 199 200 200 197 194 192 183 180 180 184 180 183 190
64 232 304 79 31 327 319 34 324 299 350 58 133 114 203 220 218 158 201 191 124 267 12 289 324 280 206 216 253 282 285 287 296 301 290 288 308 315 324 318 311 325 318 321 338 331 341 332 335 233 172 184 181 195 219 189 176 200 242 263 225 206 198 191 192 192 193 193 192 195 196 199 199 200 201 199 194 195 200 190 180 178 175 181 182 190
244 131 277 284 334 336 333 28 318 337 327 344 14 8 93 222 259 285 282 186 168 189 194 282 312 279 260 217 241 253 276 289 291 296 296 291 298 315 320 330 308 321 307 310 322 319 329 344 334 322 263 204 192 194 187 178 181 191 195 200 223 234 212 202 197 191 193 190 196 195 195 198 199 203 203 202 204 204 203 194 184 182 181 174 181 185
87 137 244 303 332 338 287 300 333 326 332 134 93 262 282 296 349 193 263 294 225 222 236 233 270 276 278 206 230 255 279 297 294 285 298 317 321 299 316 321 307 318 291 297 316 320 331 341 345 350 326 256 209 205 192 184 191 195 194 199 200 209 217 208 198 196 195 192 195 196 198 200 202 205 205 205 206 209 220 209 189 180 171 176 186 182
145 177 192 296 290 290 289 301 339 105 127 147 171 282 242 248 242 119 194 280 343 262 258 248 288 277 248 288 330 331 335 322 317 326 324 313 306 302 303 295 290 275 315 315 321 323 325 342 336 358 21 343 249 207 196 185 184 191 197 201 204 208 217 213 205 198 193 193 195 200 201 201 203 205 206 208 207 212 214 224 197 175 176 185 186 187
118 54 308 269 265 269 320 346 89 117 54 303 190 227 240 240 208 216 218 183 269 286 314 302 232 260 300 349 353 349 342 339 340 346 340 333 334 322 313 317 324 337 321 326 324 332 324 334 333 358 15 61 42 334 244 197 192 187 182 189 192 213 233 227 214 204 200 198 201 201 200 202 206 206 208 209 211 212 217 218 217 184 186 190 185 186
45 291 135 291 315 310 225 308 61 157 85 58 316 306 295 282 278 268 247 96 231 212 211 182 259 278 313 345 334 339 343 345 341 333 336 333 331 332 326 318 314 312 333 15 357 331 334 342 348 343 338 18 81 169 271 281 216 195 199 192 189 198 209 222 231 220 203 202 200 199 200 206 205 209 211 213 211 214 216 217 217 204 192 189 187 189
108 202 86 323 338 342 340 345 337 334 344 313 284 325 344 351 346 342 237 173 211 278 328 259 279 296 320 332 334 343 345 333 329 326 325 324 322 324 322 317 315 321 329 342 358 348 346 334 325 329 330 360 17 271 227 200 257 256 216 200 193 181 165 192 222 221 222 206 201 203 205 207 207 212 213 214 216 216 216 215 215 212 204 193 189 189
143 132 151 185 199 290 283 278 276 305 304 332 333 348 347 351 11 300 275 251 250 318 302 264 302 319 329 338 338 337 333 326 320 324 323 320 318 319 316 312 313 313 316 326 344 348 343 350 341 331 333 333 333 330 289 229 197 202 251 233 201 189 185 179 185 249 232 216 209 206 208 206 210 210 213 214 217 217 217 217 212 208 207 200 194 190
65 353 252 213 232 241 258 268 270 287 303 305 344 353 349 350 343 342 341 335 328 323 290 4 325 316 320 335 335 329 326 321 318 314 314 313 311 311 306 307 314 320 324 329 337 356 349 330 333 337 333 336 346 342 350 286 222 190 181 213 273 255 214 200 192 193 211 220 214 208 207 209 209 210 213 216 218 217 216 215 211 209 206 201 200 197
123 274 270 152 278 268 238 259 273 287 281 285 359 353 353 344 346 354 342 327 327 290 311 318 322 315 320 328 327 322 318 313 308 305 302 297 295 298 304 307 307 309 314 319 321 326 342 330 323 326 323 322 336 9 339 323 278 240 230 197 193 196 254 269 216 206 208 212 215 210 208 206 205 207 210 212 217 220 218 215 211 207 204 203 204 201
74 241 253 205 296 307 315 315 286 189 259 287 2 352 346 351 347 353 324 324 320 254 307 311 322 310 297 323 322 315 311 306 305 302 300 302 301 301 300 297 296 299 303 305 308 311 313 307 309 305 303 310 313 320 2 47 328 291 246 251 241 215 203 188 275 270 224 213 215 211 209 205 204 204 206 208 212 216 215 213 211 208 205 204 203 203
109 277 309 340 336 309 308 51 133 188 217 210 3 3 358 352 341 4 329 321 312 255 295 326 325 303 301 314 314 311 306 301 308 308 304 298 298 301 300 294 292 293 295 298 301 302 300 300 294 289 289 288 291 262 200 172 164 343 343 250 246 263 251 221 207 230 268 247 217 211 204 203 203 203 204 208 211 214 212 211 210 210 210 207 203 203
116 259 29 70 347 304 306 16 320 180 215 126 2 5 355 350 348 339 325 312 305 306 312 317 324 331 326 327 319 312 313 315 316 312 310 308 304 300 295 289 286 287 291 294 297 296 294 293 282 286 282 274 274 272 220 190 172 148 129 317 191 194 230 238 233 236 228 224 236 217 208 204 204 203 206 206 209 210 211 210 209 211 211 209 207 204
181 176 337 345 339 261 285 346 321 349 109 292 3 346 336 333 332 307 289 304 283 304 318 338 326 305 307 312 319 323 325 323 324 316 317 311 304 295 289 287 282 278 281 287 289 287 286 281 275 269 274 268 263 270 264 214 185 172 189 199 242 216 177 191 206 213 227 236 229 226 214 211 206 205 206 208 209 209 208 208 210 212 211 210 208 205
156 179 243 144 265 276 296 323 335 14 36 9 278 227 320 332 322 317 318 311 314 253 279 282 283 296 310 320 326 326 329 324 318 311 318 320 311 305 297 284 274 276 281 283 282 282 281 280 273 258 253 263 266 262 263 243 229 213 185 197 216 229 227 204 217 215 229 235 230 225 232 220 213 210 209 209 208 207 207 207 210 210 210 211 209 207
194 157 235 188 183 266 306 347 42 28 21 235 242 260 241 302 289 294 302 301 284 291 277 282 286 309 319 314 324 326 319 315 312 314 347 343 341 337 321 298 288 279 281 283 288 287 281 279 279 275 268 263 260 259 253 256 226 214 186 189 201 211 237 251 224 234 237 232 233 226 202 245 301 287 253 225 213 208 208 208 210 210 209 208 208 207
197 159 203 304 207 329 358 8 61 282 245 315 289 264 289 266 217 318 314 159 240 291 327 312 289 320 322 321 322 326 326 316 303 331 351 354 351 343 338 324 299 296 289 289 293 293 290 282 277 281 285 282 292 291 278 277 282 272 239 188 200 215 220 243 259 247 230 234 239 231 173 171 203 220 260 305 289 244 219 212 209 210 209 210 211 211
159 102 111 277 175 226 252 290 226 316 355 308 324 334 343 340 332 333 313 297 244 334 338 324 317 327 326 323 320 332 334 320 316 349 3 357 348 344 342 343 335 305 290 289 288 286 283 278 284 285 287 294 289 284 289 291 293 281 286 259 188 199 224 218 237 248 239 237 236 228 205 204 198 205 211 211 227 273 271 241 224 216 211 211 212 210
171 179 236 114 280 165 303 352 349 21 339 290 294 295 305 262 240 262 229 288 293 342 338 328 327 327 327 323 329 341 333 358 11 352 344 346 347 343 342 343 347 351 340 312 290 289 292 294 291 284 285 295 301 303 304 307 305 306 296 290 278 196 195 221 229 232 240 240 243 239 211 206 209 212 212 210 212 212 221 249 254 237 212 211 210 212
101 108 136 111 273 26 17 27 233 182 250 226 304 309 307 320 311 213 157 248 344 343 332 333 335 329 328 326 327 346 1 12 356 343 334 340 337 344 342 343 347 349 348 345 322 299 303 298 293 294 311 321 321 313 316 313 313 306 295 290 287 288 258 210 217 226 226 239 243 245 235 212 209 211 210 207 215 213 211 211 220 243 242 220 213 214
67 32 54 38 355 280 204 159 264 198 245 330 309 309 307 309 133 158 320 350 340 331 331 336 332 331 330 328 327 347 12 360 344 339 332 334 328 344 349 347 349 350 350 349 350 323 293 299 312 332 336 328 317 319 321 317 305 294 287 283 285 280 272 268 244 216 226 230 237 240 232 219 200 207 210 212 216 219 216 210 206 222 237 243 223 213
8 337 51 4 189 310 60 289 343 317 280 267 280 307 304 317 32 5 8 320 318 320 324 330 325 328 330 330 330 340 347 326 295 305 321 335 337 348 355 354 351 352 356 353 348 339 315 323 341 339 331 323 321 326 333 326 312 295 289 287 283 272 265 264 269 253 222 227 234 238 238 227 211 202 206 210 214 218 213 208 213 212 220 232 240 222
4 320 298 56 30 288 227 169 234 233 232 239 294 319 309 343 28 346 297 285 300 306 323 324 325 326 331 326 326 323 318 311 304 317 342 353 346 346 0 356 355 352 353 354 346 348 348 357 350 348 342 328 322 326 323 320 310 294 292 290 281 278 278 277 270 267 259 231 223 229 234 231 222 211 208 208 212 215 208 208 213 214 213 221 237 234
220 93 255 295 294 34 46 29 23 14 263 271 340 1 357 54 271 248 285 298 300 303 319 323 323 321 329 324 321 318 321 325 326 329 343 354 352 352 1 1 356 350 349 349 351 350 351 2 4 1 355 346 342 330 320 317 311 307 300 290 287 290 286 278 272 266 262 253 234 226 227 230 228 219 211 213 212 212 211 208 209 212 208 212 221 237
208 109 304 286 175 212 337 151 207 214 241 298 70 53 300 233 240 275 282 299 308 311 309 326 321 319 322 325 326 325 324 330 332 338 343 356 357 355 358 3 359 351 349 352 354 352 351 357 358 354 345 340 340 334 331 325 307 299 292 283 285 292 288 277 266 258 255 252 246 226 220 228 233 227 216 215 214 217 218 216 213 207 210 260 248 230
205 165 178 204 246 150 215 224 260 264 254 271 162 204 236 273 284 274 284 276 297 316 270 300 312 315 325 329 329 333 335 334 334 338 345 351 353 355 357 2 359 350 347 352 356 355 358 356 355 349 336 342 349 348 342 336 317 295 285 279 281 288 289 278 263 249 241 239 234 222 225 228 239 238 226 218 209 213 216 214 157 170 177 170 268 318
268 164 138 94 274 244 245 194 328 327 324 312 284 227 251 285 294 293 300 303 311 317 305 277 310 311 317 328 337 341 340 336 335 336 347 350 350 349 351 358 359 354 351 356 1 357 357 357 359 0 0 358 1 356 349 339 326 305 287 283 278 285 289 268 247 233 228 229 225 223 215 225 239 246 242 226 209 207 207 198 177 188 193 194 201 201
268 152 123 164 274 111 214 150 348 292 299 268 271 308 296 273 268 291 311 296 301 323 328 309 308 316 326 331 348 342 343 343 345 344 351 353 351 351 354 359 1 358 354 353 358 358 359 360 1 0 357 359 356 352 344 336 330 311 289 264 293 332 318 269 226 213 213 217 219 214 210 222 233 236 237 229 225 214 202 187 176 180 184 189 195 203
318 206 125 212 170 176 235 210 251 271 249 247 272 315 303 303 303 311 304 304 316 325 344 328 330 341 341 353 347 352 348 344 353 355 357 359 353 354 356 360 2 356 355 350 351 2 2 3 3 357 355 358 351 346 337 335 329 317 317 355 356 340 317 259 204 192 186 198 194 208 210 229 234 228 226 223 209 205 211 204 188 183 186 185 184 188
197 80 240 188 232 283 322 306 291 320 342 330 331 315 289 292 303 324 333 340 345 355 350 337 334 339 352 354 352 355 355 352 355 355 2 0 0 358 359 359 2 0 354 357 357 359 2 1 359 355 360 358 349 345 341 336 334 338 3 10 360 339 302 130 112 103 99 97 88 68 43 224 243 245 239 221 213 210 210 211 207 200 201 197 182 182
33 244 201 58 353 325 202 247 352 38 283 302 321 302 305 319 341 343 351 357 358 359 355 351 345 339 347 3 2 359 359 354 357 358 6 4 4 1 360 358 1 3 1 359 359 0 357 357 359 0 359 355 351 352 351 349 352 359 14 14 349 321 330 64 69 71 66 65 64 49 53 43 8 247 222 225 218 180 48 33 67 15 287 246 246 235
168 210 136 168 184 241 249 242 211 199 236 233 254 295 311 329 349 8 360 353 353 4 356 3 1 354 353 352 0 4 359 355 356 360 8 9 6 3 2 3 1 2 3 1 3 1 360 358 356 356 359 358 358 358 357 359 2 5 6 356 332 325 351 37 58 56 54 48 37 13 29 36 40 55 88 87 96 77 49 359 13 31 27 8 11 358